EW2997 Weather Reports


Display with metric or nautical units.
time (UTC)temp
F
wind
direction
speed
MPH
gust
MPH
rain 1hr
in
rain 24hr
in
rain mn
in
humidity
%
barometer
mb
20260902205038 81 197 1.0 1.0 0.00 0.15 0.15 68 1021.2
20260902202037 83 83 2.0 2.0 0.00 0.15 0.15 64 1021.2
20260902195036 85 222 0.0 0.0 0.00 0.15 0.15 60 1021.2
20260902192036 79 276 2.0 2.0 0.00 0.15 0.15 73 1021.5
20260902185032 79 221 2.0 2.0 0.00 0.15 0.15 76 1021.9
20260902182030 77 264 2.0 2.0 0.00 0.15 0.15 80 1021.9
20260902175030 78 288 0.0 0.0 0.00 0.15 0.15 76 1022.2
20260902172027 71 82 2.0 2.0 0.00 0.15 0.15 94 1022.9
20260902165027 71 59 0.0 0.0 0.15 0.15 0.15 92 1023.7
20260902162022 70 78 0.0 0.0 0.14 0.14 0.14 93 1024.3
20260902155019 78 42 5.0 5.0 0.00 0.00 0.00 77 1024.0
20260902152018 81 240 2.0 2.0 0.00 0.00 0.00 75 1022.5
20260902145016 80 236 2.0 2.0 0.00 0.00 0.00 76 1022.2
20260902142012 81 207 0.0 0.0 0.00 0.00 0.00 76 1022.2
20260902135009 80 192 0.0 0.0 0.00 0.00 0.00 76 1022.2
20260902132008 79 241 0.0 0.0 0.00 0.00 0.00 77 1022.2
20260902125004 78 235 2.0 2.0 0.00 0.00 0.00 82 1022.5
20260902122004 76 26 0.0 0.0 0.00 0.00 0.00 86 1021.9
20260902115000 70 25 0.0 0.0 0.00 0.00 0.00 95 1021.9
20260902111954 69 25 0.0 0.0 0.00 0.00 0.00 97 1021.5
20260902104950 69 25 0.0 0.0 0.00 0.00 0.00 97 1021.5
20260902101947 69 25 0.0 0.0 0.00 0.00 0.00 96 1022.2
20260902094947 69 25 0.0 0.0 0.00 0.00 0.00 96 1021.9
20260902091945 70 25 0.0 0.0 0.00 0.00 0.00 96 1021.9
20260902084944 70 25 1.0 1.0 0.00 0.00 0.00 95 1021.9
20260902081940 69 25 0.0 0.0 0.00 0.00 0.00 96 1021.9
20260902074936 70 25 0.0 0.0 0.00 0.00 0.00 95 1021.5
20260902071933 71 25 0.0 0.0 0.00 0.00 0.00 95 1021.5
20260902064931 71 26 2.0 2.0 0.00 0.00 0.00 94 1021.2
20260902061928 72 26 0.0 0.0 0.00 0.00 0.00 93 1021.2
20260902054926 73 26 0.0 0.0 0.00 0.00 0.00 91 1021.5
20260902051924 74 26 1.0 1.0 0.00 0.00 0.00 88 1021.9
20260902044921 76 26 0.0 0.0 0.00 0.00 0.00 85 1021.9
20260902041920 77 140 3.0 4.0 0.00 0.00 0.00 77 1021.5
20260902034920 73 149 0.0 0.0 0.00 0.00 0.00 90 1021.2
20260902031920 74 149 1.0 1.0 0.00 0.00 0.00 88 1020.5
20260902024919 76 149 0.0 0.0 0.00 0.00 0.00 81 1020.2
20260902021919 76 229 1.0 1.0 0.00 0.00 0.00 84 1019.8
20260902014914 76 229 2.0 2.0 0.00 0.00 0.00 87 1020.2
20260902011909 78 229 2.0 2.0 0.00 0.00 0.00 80 1020.2
20260902004906 82 240 2.0 2.0 0.00 0.00 0.00 68 1019.5
20260902001903 83 236 2.0 2.0 0.00 0.00 0.00 68 1019.0
20260901234901 83 242 3.0 3.0 0.00 0.00 0.00 68 1018.7
20260901231902 85 282 0.0 0.0 0.00 0.00 0.00 63 1018.4
20260901224901 85 270 2.0 2.0 0.00 0.00 0.00 60 1018.4
20260901221859 87 271 2.0 2.0 0.00 0.00 0.00 59 1018.4
20260901214857 89 277 2.0 2.0 0.00 0.00 0.00 53 1018.4
20260901211854 90 276 2.0 2.0 0.00 0.00 0.00 54 1018.4